User: anonymous   Login
Location: Unspecified
(0.0000°N, 0.0000°E)
Time: 15:14:16
(UTC+00:00)
Language:

Radcal - Orbit

View from above orbital plane
View from above orbital plane
View from above satellite
View from above satellite

Ground track
Ground track

The orbit data is extracted from the following two-line orbital elements,

1 22698U 93041A   18260.97523985  .00000065  00000-0  21698-4 0  9990
2 22698  89.5671 210.1340 0091296  76.8642 284.2718 14.23380802309944
Epoch (UTC): 17 September 2018 23:24:20
Eccentricity: 0.0091296
inclination: 89.5671°
perigee height: 748 km
apogee height: 879 km
right ascension of ascending node: 210.1340°
argument of perigee: 76.8642°
revolutions per day: 14.23380802
mean anomaly at epoch: 284.2718°
orbit number at epoch: 30994

The dashed part of the orbit path shows where the satellite is in the earth's shadow,  

DLR